Elbow Lake, MN

4:58 PM CDT on September 19, 2019 (GMT -0500)
Elbow Lake

Weather History for KY63 - August, 2019

Change the Weather History Date:

Thursday, August 22, 2019

  Actual Average (KFFM) Record (KFFM)
Temperature  
Mean Temperature 62 °F -  
Max Temperature 72 °F 77 °F 95 °F (1971)
Min Temperature 51 °F 56 °F 45 °F (1965)
Degree Days  
Heating Degree Days 4    
Growing Degree Days 12 (Base 50)    
Moisture  
Dew Point 52 °F    
Average Humidity 71    
Maximum Humidity 97    
Minimum Humidity 48    
Precipitation  
Precipitation 0.00 in - - ()
Sea Level Pressure  
Sea Level Pressure 30.10 in    
Wind  
Wind Speed 5 mph (ESE)    
Max Wind Speed 9 mph    
Max Gust Speed -    
Visibility 10 miles    
Events      
Averages and records for this station are not official NWS values.
T = Trace of Precipitation, MM = Missing Value Source: NWS Daily Summary

Daily Weather History Graph

Daily Weather History Graph

Search for Another Location

Airport or City:

Astronomy

Aug. 22, 2019 Rise Set
Actual Time 6:32 AM CDT 8:20 PM CDT
Civil Twilight 6:00 AM CDT 8:52 PM CDT
Nautical Twilight 5:21 AM CDT 9:31 PM CDT
Astronomical Twilight 4:38 AM CDT 10:13 PM CDT
Moon 11:49 PM CDT (8/22) 1:29 PM CDT (8/22)
Length of Visible Light 14h 52m
Length of Day
13h 48m
Waning Gibbous, 59% of the Moon is Illuminated
Aug 22
Waning Gibbous
Aug 23
Last Quarter
Aug 30
New
Sep 5
First Quarter
Sep 13
Full

Hourly Weather History & Observations

Time (CDT) Temp. Dew Point Humidity Pressure Visibility Wind Dir Wind Speed Gust Speed Precip Events Conditions
12:16 AM 59.9 °F 54.3 °F 82% 30.09 in 10.0 mi SE 5.8 mph - N/A   Clear
12:35 AM 59.0 °F 53.1 °F 81% 30.09 in 10.0 mi SSE 5.8 mph - N/A   Clear
12:55 AM 59.4 °F 52.5 °F 78% 30.10 in 10.0 mi SE 5.8 mph - N/A   Clear
1:16 AM 59.0 °F 52.0 °F 78% 30.10 in 10.0 mi SE 4.6 mph - N/A   Clear
1:35 AM 59.0 °F 52.0 °F 78% 30.11 in 10.0 mi ESE 4.6 mph - N/A   Clear
1:55 AM 59.0 °F 51.3 °F 75% 30.11 in 10.0 mi East 5.8 mph - N/A   Clear
2:16 AM 58.6 °F 51.3 °F 76% 30.10 in 10.0 mi East 4.6 mph - N/A   Clear
2:35 AM 58.1 °F 50.9 °F 77% 30.10 in 10.0 mi NE 5.8 mph - N/A   Clear
2:55 AM 57.7 °F 51.4 °F 79% 30.09 in 10.0 mi NE 5.8 mph - N/A   Clear
3:15 AM 57.4 °F 52.0 °F 82% 30.08 in 10.0 mi NE 5.8 mph - N/A   Clear
3:35 AM 57.2 °F 51.8 °F 82% 30.08 in 10.0 mi NE 5.8 mph - N/A   Clear
3:55 AM 57.2 °F 52.2 °F 83% 30.08 in 10.0 mi SE 6.9 mph - N/A   Clear
4:15 AM 52.9 °F 50.2 °F 91% 30.08 in 10.0 mi East 4.6 mph - N/A   Clear
4:35 AM 51.3 °F 49.8 °F 95% 30.08 in 10.0 mi East 3.5 mph - N/A   Clear
4:55 AM 53.6 °F 52.2 °F 95% 30.09 in 10.0 mi Calm Calm - N/A   Clear
5:15 AM 54.5 °F 53.6 °F 97% 30.09 in 10.0 mi SE 4.6 mph - N/A   Clear
5:35 AM 52.3 °F 49.6 °F 91% 30.08 in 10.0 mi ESE 3.5 mph - N/A   Clear
5:56 AM 51.6 °F 50.7 °F 97% 30.08 in 10.0 mi Calm Calm - N/A   Clear
6:15 AM 54.5 °F 52.7 °F 94% 30.08 in 10.0 mi ENE 3.5 mph - N/A   Clear
6:35 AM 55.4 °F 52.3 °F 89% 30.09 in 10.0 mi ESE 4.6 mph - N/A   Clear
6:55 AM 55.4 °F 52.3 °F 89% 30.11 in 10.0 mi SE 5.8 mph - N/A   Clear
7:15 AM 55.6 °F 53.8 °F 94% 30.11 in 10.0 mi SE 5.8 mph - N/A   Clear
7:35 AM 55.9 °F 52.9 °F 89% 30.11 in 10.0 mi SE 5.8 mph - N/A   Clear
7:55 AM 53.8 °F 52.2 °F 94% 30.11 in 10.0 mi ESE 3.5 mph - N/A   Clear
8:15 AM 55.6 °F 52.7 °F 90% 30.11 in 10.0 mi Calm Calm - N/A   Scattered Clouds
8:35 AM 56.8 °F 54.0 °F 90% 30.12 in 10.0 mi Calm Calm - N/A   Mostly Cloudy
8:55 AM 60.6 °F 53.4 °F 77% 30.11 in 10.0 mi ESE 4.6 mph - N/A   Scattered Clouds
9:15 AM 62.1 °F 52.9 °F 72% 30.11 in 10.0 mi SE 5.8 mph - N/A   Clear
9:35 AM 63.7 °F 54.0 °F 71% 30.11 in 10.0 mi ESE 5.8 mph - N/A   Clear
9:55 AM 64.6 °F 53.8 °F 68% 30.12 in 10.0 mi ESE 3.5 mph - N/A   Clear
10:15 AM 66.0 °F 54.1 °F 65% 30.11 in 10.0 mi SE 3.5 mph - N/A   Clear
10:35 AM 66.4 °F 52.7 °F 61% 30.12 in 10.0 mi ESE 4.6 mph - N/A   Clear
10:55 AM 67.3 °F 50.9 °F 56% 30.12 in 10.0 mi East 4.6 mph - N/A   Clear
11:15 AM 67.3 °F 51.3 °F 56% 30.12 in 10.0 mi SE 4.6 mph - N/A   Clear
11:35 AM 68.4 °F 52.9 °F 58% 30.12 in 10.0 mi Calm Calm - N/A   Clear
11:55 AM 68.4 °F 52.3 °F 57% 30.12 in 10.0 mi SE 3.5 mph - N/A   Clear
12:15 PM 68.7 °F 53.1 °F 57% 30.12 in 10.0 mi SE 6.9 mph - N/A   Scattered Clouds
12:35 PM 70.5 °F 53.4 °F 55% 30.12 in 10.0 mi SE 4.6 mph - N/A   Mostly Cloudy
12:55 PM 69.8 °F 52.2 °F 53% 30.11 in 10.0 mi South 3.5 mph - N/A   Scattered Clouds
1:15 PM 68.9 °F 51.8 °F 54% 30.11 in 10.0 mi SE 5.8 mph - N/A   Mostly Cloudy
1:35 PM 71.1 °F 53.4 °F 54% 30.11 in 10.0 mi ENE 5.8 mph - N/A   Overcast
1:55 PM 71.4 °F 53.6 °F 53% 30.11 in 10.0 mi ESE 4.6 mph - N/A   Scattered Clouds
2:15 PM 68.2 °F 51.6 °F 55% 30.11 in 10.0 mi SSE 5.8 mph - N/A   Scattered Clouds
2:35 PM 69.8 °F 51.8 °F 53% 30.11 in 10.0 mi Calm Calm - N/A   Scattered Clouds
2:55 PM 71.6 °F 51.4 °F 49% 30.10 in 10.0 mi ESE 4.6 mph - N/A   Mostly Cloudy
3:15 PM 71.6 °F 50.7 °F 48% 30.10 in 10.0 mi SE 4.6 mph - N/A   Mostly Cloudy
3:35 PM 68.9 °F 49.8 °F 51% 30.10 in 10.0 mi SE 4.6 mph - N/A   Scattered Clouds
3:55 PM 72.0 °F 51.3 °F 48% 30.09 in 10.0 mi NE 5.8 mph - N/A   Scattered Clouds
4:10 PM - - N/A% 30.08 in - ENE 5.8 mph - N/A   Unknown
4:36 PM - - N/A% 30.08 in 10.0 mi Calm Calm - N/A   Unknown
5:01 PM - - N/A% - - North - - N/A   Unknown
5:15 PM 71.4 °F 50.7 °F 48% 30.08 in 10.0 mi SE 5.8 mph - N/A   Unknown
5:36 PM 71.1 °F 51.6 °F 50% 30.07 in 10.0 mi SE 6.9 mph - N/A   Mostly Cloudy
5:55 PM 70.7 °F 52.5 °F 52% 30.07 in 10.0 mi SE 8.1 mph - N/A   Scattered Clouds
6:16 PM 69.1 °F 50.9 °F 52% 30.08 in 10.0 mi SE 9.2 mph - N/A   Clear
6:36 PM 69.4 °F 52.7 °F 55% 30.08 in 10.0 mi ESE 5.8 mph - N/A   Clear
6:55 PM 68.9 °F 52.3 °F 55% 30.08 in 10.0 mi ESE 4.6 mph - N/A   Clear
7:16 PM 68.5 °F 52.3 °F 56% 30.08 in 10.0 mi ESE 4.6 mph - N/A   Scattered Clouds
7:36 PM 67.3 °F 54.0 °F 62% 30.08 in 10.0 mi SE 6.9 mph - N/A   Scattered Clouds
7:55 PM 65.8 °F 52.9 °F 63% 30.08 in 10.0 mi ESE 4.6 mph - N/A   Clear
8:15 PM 64.9 °F 52.2 °F 63% 30.09 in 10.0 mi SE 5.8 mph - N/A   Clear
8:36 PM 63.5 °F 53.4 °F 70% 30.10 in 10.0 mi SE 5.8 mph - N/A   Clear
8:56 PM 62.6 °F 54.0 °F 73% 30.10 in 10.0 mi SE 6.9 mph - N/A   Clear
9:15 PM 62.6 °F 54.3 °F 74% 30.11 in 10.0 mi SE 8.1 mph - N/A   Clear
9:36 PM 61.2 °F 54.0 °F 77% 30.11 in 10.0 mi SE 8.1 mph - N/A   Clear
9:56 PM 60.3 °F 54.1 °F 80% 30.11 in 10.0 mi SE 6.9 mph - N/A   Clear
10:16 PM 59.7 °F 54.3 °F 82% 30.12 in 10.0 mi SE 6.9 mph - N/A   Clear
10:35 PM 60.3 °F 52.5 °F 76% 30.12 in 10.0 mi SE 8.1 mph - N/A   Clear
10:55 PM 59.4 °F 53.6 °F 81% 30.12 in 10.0 mi SE 8.1 mph - N/A   Clear
11:16 PM 59.2 °F 52.9 °F 80% 30.13 in 10.0 mi SE 6.9 mph - N/A   Clear
11:36 PM 58.3 °F 51.8 °F 79% 30.13 in 10.0 mi ESE 6.9 mph - N/A   Clear
11:56 PM 58.1 °F 52.0 °F 80% 30.14 in 10.0 mi SE 8.1 mph - N/A   Clear